sat.trackr.live / text

‹ back to catalog

STARLINK-32240

NORAD 60438 · 2024-144P

PAYLOAD ACTIVE UNKNOWN

§ Identity

Operator
Country
US
Launch date
2024-08-12
Launch site
AFETR
Launch vehicle
Mass (kg)
RCS (m²)

Purposes: comms

External: N2YO · Heavens-Above · Gunter

§ Orbital elements

Epoch: 2026-05-24T21:58:38.612352Z

Period
93.85 min
Inclination
53.1618°
Eccentricity
0.0000925
Mean motion
15.34389143 rev/d
Perigee alt
462.1 km
Apogee alt
463.4 km
Semi-major
6,840.9 km
B*
2.5458e-5
RAAN
222.0827°
Arg perigee
94.9687°
Mean anomaly
265.1421°
Rev number
10,103

§ Raw data

STARLINK-322401 60438U 24144P   26144.91572468  .00000484  00000+0  25458-4 0  99982 60438  53.1618 222.0827 0000925  94.9687 265.1421 15.34389143101036

JSON: /api/v1/satellites/60438 · /tle

For live sub-satellite position, see the globe view (requires WebGL).

§ Visibility from observer

Set your observer location to see the next 7 days of passes ≥ 10°. The values pass through the URL so the page stays shareable.

No JS? Fill the form by hand. The geolocation button needs JavaScript.